TELECOM 2C

导读

TELECOM 2C是法国于1995年12月6日成功发射的通信卫星,隶属于法国电信卫星系列,旨在为欧洲及周边区域提供可靠的通信服务,涵盖民用通信、广播电视传输等业务。该卫星由法国空间部门主导研制,依托阿丽亚娜系列运载火箭送入预定轨道,是法国九十年代空间通信基础设施建设的重要成果,服役期间保障了区域通信网络稳定运行,推动了欧洲卫星通信产业发展。

Basic Information
目录编号:
23730
目录名称:
TELECOM 2C
国际标识:
1995-067A
轨道中心:
EARTH
卫星名称:
TELECOM 2C
卫星全名:
--
卫星状态:
在轨 (已飞行11151 天)
发射日期:
1995-12-06 UTC
国别 :
法国 (FR)
星等 :
--
Orbit Information
数据来源 国际轨道数据 AOE轨道数据
星历时间 2026-06-16T23:04:41+0800
17小时前
查看轨道信息
2026-06-16T10:00:00+0800
1天前
查看轨道信息
半长轴 42832.285km 42832.168km
偏心率 0.0013508 0.0013642
轨道倾角 14.105° 14.105°
近地点辐角 306.421° 306.909°
升交点赤经 16.072° 16.079°
平近点角 243.207° 50.586°
近地点 36396.29km 36395.599km
远地点 36512.006km 36512.463km
周期 1470.336分钟 1470.330分钟
每日圈数 0.979368 0.979372
Detailed Information
使用方式:
暂无
2D Orbit Map
3D Orbit Map
Orbit Altitude Analysis Chart
Orbit Inclination Analysis Chart
Orbit Comprehensive Analysis Chart
View Comprehensive Chart